Location: Unspecified
(45.0173°N, 35.2345°E)
Time: 21:04:19
(UTC+02:00)

Tiangong - Pass Details

Date: 28 January 2026
Orbit: 386 x 393 km, 41.5° (Epoch: 6 February)

Event Time Altitude Azimuth Distance (km) Brightness Sun altitude
Exits shadow 05:22:23 24° 203° (SSW) 866 -0.5 -17.9°
Maximum altitude 05:22:30 24° 200° (SSW) 865 -0.5 -17.9°
Drops below altitude 10° 05:25:11 10° 144° (SE) 1,429 1.4 -17.4°
Sets 05:27:29 0° 129° (SE) 2,283 2.8 -17.0°
